Iowa Falls, IA

3:14 AM CDT on October 23, 2017 (GMT -0500)
Iowa Falls Municipal

Weather History for KIFA - July, 2013

Change the Weather History Date:

Wednesday, July 31, 2013

  Actual Average Record
Temperature  
Mean Temperature 70 °F -  
Max Temperature 80 °F 82 °F 103 °F (1988)
Min Temperature 59 °F 59 °F 44 °F (1960)
Cooling Degree Days 4    
Growing Degree Days 20 (Base 50)    
Moisture  
Dew Point 62 °F    
Average Humidity 79    
Maximum Humidity 97    
Minimum Humidity 48    
Precipitation  
Precipitation 0.00 in - - ()
Sea Level Pressure  
Sea Level Pressure 30.09 in    
Wind  
Wind Speed 3 mph (WNW)    
Max Wind Speed 12 mph    
Max Gust Speed 16 mph    
Visibility 7 miles    
Events Fog    
Averages and records for this station are not official NWS values.
T = Trace of Precipitation, MM = Missing Value Source: NWS Daily Summary

Daily Weather History Graph

Daily Weather History Graph

Search for Another Location

Airport or City:

Trip Planner

Search our weather history database for the weather conditions in past years. The results will help you decide how hot, cold, wet, or windy it might be!

Date:

Astronomy

Jul. 31, 2013 Rise Set
Actual Time 6:04 AM CDT 8:33 PM CDT
Civil Twilight 5:32 AM CDT 9:05 PM CDT
Nautical Twilight 4:52 AM CDT 9:45 PM CDT
Astronomical Twilight 4:08 AM CDT 10:29 PM CDT
Moon 1:00 AM CDT (7/31) 3:50 PM CDT (7/31)
Length of Visible Light 15h 32m
Length of Day
14h 29m
Waning Crescent, 31% of the Moon is Illuminated
Jul 31
Waning Crescent
Aug 6
New
Aug 14
First Quarter
Aug 20
Full
Aug 28
Last Quarter

Hourly Weather History & Observations

Time (CDT) Temp. Heat Index Dew Point Humidity Pressure Visibility Wind Dir Wind Speed Gust Speed Precip Events Conditions
12:15 AM 61.3 °F - 59.9 °F 95% 30.09 in 3.0 mi Calm Calm - N/A   Clear
12:35 AM 60.8 °F - 59.4 °F 95% 30.10 in 3.0 mi Calm Calm - N/A   Clear
12:55 AM 60.1 °F - 58.6 °F 95% 30.10 in 2.5 mi Calm Calm - N/A   Scattered Clouds
1:15 AM 59.9 °F - 58.5 °F 95% 30.10 in 0.2 mi Calm Calm - N/A Fog Fog
1:35 AM 59.0 °F - 57.6 °F 95% 30.10 in 0.2 mi Calm Calm - N/A Fog Fog
2:15 AM 59.5 °F - 58.5 °F 96% 30.10 in 0.2 mi Calm Calm - N/A Fog Fog
2:35 AM 59.5 °F - 58.5 °F 96% 30.09 in 0.2 mi Calm Calm - N/A Fog Fog
2:55 AM 59.4 °F - 58.3 °F 96% 30.09 in 0.2 mi Calm Calm - N/A Fog Fog
3:15 AM 59.0 °F - 58.1 °F 97% 30.10 in 0.2 mi Calm Calm - N/A Fog Fog
3:35 AM 59.4 °F - 58.5 °F 97% 30.11 in 0.2 mi Calm Calm - N/A Fog Fog
3:55 AM 59.9 °F - 59.0 °F 97% 30.10 in 0.2 mi Calm Calm - N/A Fog Fog
4:15 AM 60.4 °F - 59.5 °F 97% 30.10 in 0.2 mi Calm Calm - N/A Fog Fog
4:35 AM 61.0 °F - 60.1 °F 97% 30.11 in 1.0 mi Calm Calm - N/A   Overcast
4:55 AM 61.3 °F - 60.4 °F 97% 30.10 in 1.5 mi Calm Calm - N/A   Overcast
5:15 AM 61.7 °F - 60.8 °F 97% 30.11 in 2.0 mi Calm Calm - N/A   Overcast
5:35 AM 62.1 °F - 61.2 °F 97% 30.12 in 2.0 mi Calm Calm - N/A   Overcast
5:55 AM 62.6 °F - 61.7 °F 97% 30.12 in 2.0 mi Calm Calm - N/A   Overcast
6:15 AM 62.6 °F - 61.7 °F 97% 30.12 in 2.5 mi Calm Calm - N/A   Overcast
6:35 AM 62.8 °F - 61.9 °F 97% 30.12 in 2.5 mi Calm Calm - N/A   Overcast
6:55 AM 63.0 °F - 62.1 °F 97% 30.12 in 1.5 mi Calm Calm - N/A   Overcast
7:15 AM 63.0 °F - 62.1 °F 97% 30.11 in 2.0 mi Calm Calm - N/A   Mostly Cloudy
7:35 AM 63.0 °F - 62.1 °F 97% 30.11 in 1.8 mi Calm Calm - N/A   Scattered Clouds
7:55 AM 64.0 °F - 63.1 °F 97% 30.12 in 2.0 mi West 3.5 mph - N/A   Clear
8:15 AM 65.1 °F - 64.2 °F 97% 30.12 in 4.0 mi West 3.5 mph - N/A   Scattered Clouds
8:35 AM 66.2 °F - 65.3 °F 97% 30.13 in 7.0 mi West 5.8 mph - N/A   Mostly Cloudy
8:55 AM 66.4 °F - 65.5 °F 97% 30.13 in 7.0 mi West 4.6 mph - N/A   Overcast
9:15 AM 67.3 °F - 66.0 °F 96% 30.12 in 7.0 mi WSW 4.6 mph - N/A   Overcast
9:35 AM 69.6 °F - 65.8 °F 88% 30.13 in 10.0 mi WSW 4.6 mph - N/A   Mostly Cloudy
9:55 AM 71.2 °F - 64.8 °F 80% 30.12 in 10.0 mi West 4.6 mph - N/A   Scattered Clouds
10:15 AM 72.1 °F - 64.2 °F 76% 30.12 in 10.0 mi West 4.6 mph - N/A   Scattered Clouds
10:35 AM 72.7 °F - 64.4 °F 75% 30.12 in 10.0 mi West 4.6 mph - N/A   Mostly Cloudy
10:55 AM 73.4 °F - 63.9 °F 72% 30.12 in 10.0 mi West 5.8 mph - N/A   Mostly Cloudy
11:15 AM 73.4 °F - 64.8 °F 74% 30.12 in 10.0 mi West 5.8 mph - N/A   Mostly Cloudy
11:35 AM 74.7 °F - 64.2 °F 70% 30.12 in 10.0 mi West 8.1 mph - N/A   Mostly Cloudy
11:55 AM 74.8 °F - 63.9 °F 69% 30.12 in 10.0 mi WNW 6.9 mph - N/A   Mostly Cloudy
12:15 PM 75.4 °F - 64.9 °F 70% 30.12 in 10.0 mi West 9.2 mph - N/A   Scattered Clouds
12:35 PM 75.9 °F - 63.7 °F 66% 30.11 in 10.0 mi WNW 9.2 mph - N/A   Scattered Clouds
12:55 PM 77.0 °F - 63.5 °F 63% 30.11 in 10.0 mi WNW 10.4 mph - N/A   Mostly Cloudy
1:15 PM 76.5 °F - 62.8 °F 62% 30.12 in 10.0 mi WNW 9.2 mph - N/A   Mostly Cloudy
1:35 PM 77.4 °F - 63.1 °F 61% 30.11 in 10.0 mi NW 8.1 mph - N/A   Mostly Cloudy
1:55 PM 77.2 °F - 63.3 °F 62% 30.10 in 10.0 mi WNW 6.9 mph - N/A   Mostly Cloudy
2:15 PM 78.4 °F - 63.7 °F 60% 30.10 in 10.0 mi West 5.8 mph - N/A   Mostly Cloudy
2:35 PM 77.0 °F - 62.4 °F 61% 30.09 in 10.0 mi NW 5.8 mph - N/A   Mostly Cloudy
2:55 PM 75.2 °F - 64.2 °F 69% 30.09 in 10.0 mi NW 6.9 mph - N/A   Overcast
3:15 PM 78.4 °F - 62.4 °F 58% 30.09 in 10.0 mi WNW 8.1 mph - N/A   Scattered Clouds
3:35 PM 79.7 °F - 63.1 °F 57% 30.08 in 10.0 mi NW 6.9 mph - N/A   Scattered Clouds
3:55 PM 79.9 °F - 61.3 °F 53% 30.08 in 10.0 mi WNW 8.1 mph - N/A   Scattered Clouds
4:15 PM 80.4 °F 81.4 °F 61.3 °F 52% 30.07 in 10.0 mi NW 9.2 mph - N/A   Scattered Clouds
4:35 PM 80.6 °F 81.5 °F 61.0 °F 51% 30.07 in 10.0 mi NW 10.4 mph - N/A   Scattered Clouds
4:55 PM 79.9 °F - 61.7 °F 54% 30.07 in 10.0 mi WNW 10.4 mph 16.1 mph N/A   Scattered Clouds
5:15 PM 79.7 °F - 60.3 °F 51% 30.07 in 10.0 mi NW 10.4 mph 16.1 mph N/A   Scattered Clouds
5:35 PM 79.9 °F - 59.7 °F 50% 30.06 in 10.0 mi NW 8.1 mph - N/A   Scattered Clouds
5:55 PM 79.7 °F - 58.6 °F 48% 30.06 in 10.0 mi NW 11.5 mph 16.1 mph N/A   Clear
6:15 PM 79.5 °F - 59.5 °F 50% 30.05 in 10.0 mi NW 10.4 mph - N/A   Clear
6:35 PM 79.0 °F - 60.6 °F 53% 30.05 in 10.0 mi NW 8.1 mph - N/A   Clear
6:55 PM 78.4 °F - 60.1 °F 53% 30.05 in 10.0 mi NW 8.1 mph - N/A   Clear
7:15 PM 77.9 °F - 60.8 °F 56% 30.05 in 10.0 mi NW 5.8 mph - N/A   Clear
7:35 PM 77.0 °F - 61.0 °F 58% 30.05 in 10.0 mi NW 6.9 mph - N/A   Clear
7:55 PM 75.4 °F - 60.8 °F 60% 30.05 in 10.0 mi NW 3.5 mph - N/A   Clear
8:15 PM 73.2 °F - 61.7 °F 67% 30.05 in 10.0 mi Calm Calm - N/A   Clear
8:35 PM 71.6 °F - 62.4 °F 73% 30.05 in 10.0 mi Calm Calm - N/A   Clear
8:55 PM 68.5 °F - 62.6 °F 81% 30.05 in 10.0 mi Calm Calm - N/A   Clear
9:15 PM 67.1 °F - 62.2 °F 84% 30.05 in 10.0 mi Calm Calm - N/A   Clear
9:35 PM 66.7 °F - 62.2 °F 85% 30.06 in 10.0 mi Calm Calm - N/A   Clear
9:55 PM 64.6 °F - 61.3 °F 89% 30.07 in 10.0 mi Calm Calm - N/A   Clear
10:15 PM 63.9 °F - 60.8 °F 90% 30.08 in 10.0 mi Calm Calm - N/A   Clear
10:35 PM 64.0 °F - 60.1 °F 87% 30.08 in 10.0 mi Calm Calm - N/A   Clear
10:55 PM 62.8 °F - 59.9 °F 90% 30.08 in 10.0 mi Calm Calm - N/A   Clear
11:15 PM 62.1 °F - 58.6 °F 89% 30.08 in 10.0 mi Calm Calm - N/A   Clear
11:35 PM 61.3 °F - 58.6 °F 91% 30.08 in 10.0 mi West 3.5 mph - N/A   Clear
11:55 PM 61.7 °F - 59.2 °F 91% 30.08 in 10.0 mi West 3.5 mph - N/A   Clear